This demonstration page uses our WeatherBlox Daily Observations layout. Learn more.

41.55636, -103.73856

Hourly Observations for August 3, 2016

Temp ( °F °C ) Dew Point ( °F °C ) Humidity (%) Winds ( mph kmh ) Pressure ( in mb ) Visibility ( mi km ) Precip ( " mm )
12:53 am 00:53 Clear 72 22.2 51 10.6 48 48 VRB 6 9 29.93 1014 10 16.0934 0 0
1:53 am 01:53 Clear 70 21.1 52 11.1 53 53 S 3 6 29.93 1014 10 16.0934 0 0
2:53 am 02:53 Clear 68 20 53 11.7 59 59 VRB 3 6 29.95 1014 10 16.0934 0 0
3:53 am 03:53 Clear 68 20 53 11.7 59 59 SSE 3 6 29.93 1014 10 16.0934 0 0
4:53 am 04:53 Clear 69 20.6 53 11.7 57 57 SSW 6 9 29.93 1014 10 16.0934 0 0
5:53 am 05:53 Sunny 62 16.7 54 12.2 75 75 E 6 9 29.95 1014 10 16.0934 0 0
6:53 am 06:53 Sunny 64 17.8 56 13.3 75 75 E 9 15 29.93 1013 10 16.0934 0 0
7:53 am 07:53 Sunny 69 20.6 57 13.9 66 66 ESE 10 17 29.9 1013 10 16.0934 0 0
8:53 am 08:53 Sunny 74 23.3 60 15.6 62 62 E 10 17 29.9 1012 10 16.0934 0 0
9:53 am 09:53 Sunny 79 26.1 62 16.7 56 56 ESE 10 17 29.88 1012 10 16.0934 0 0
10:53 am 10:53 Sunny 87 30.6 60 15.6 40 40 SE 10 17 29.85 1011 10 16.0934 0 0
11:53 am 11:53 Sunny 93 33.9 55 12.8 28 28 S 14 22 29.82 1010 10 16.0934 0 0
12:53 pm 12:53 Sunny 95 35 55 12.8 26 26 S 12 19 29.79 1009 10 16.0934 0 0
1:53 pm 13:53 Sunny 98 36.7 55 12.8 24 24 S 10 17 29.77 1008 10 16.0934 0 0
2:53 pm 14:53 Sunny 93 33.9 53 11.7 26 26 S 8 13 29.76 1008 10 16.0934 0 0
3:53 pm 15:53 Sunny 91 32.8 57 13.9 32 32 S 10 17 29.75 1008 10 16.0934 0 0
4:44 pm 16:44 Sunny 95 35 45 7 18 18 SW 7 11 29.5 999 10 16.0934 0 0
4:53 pm 16:53 Sunny 97 36.1 47 8.3 18 18 SSE 8 13 29.71 1006 10 16.0934 0 0
5:53 pm 17:53 Sunny 94 34.4 58 14.4 30 30 E 6 9 29.73 1007 10 16.0934 0 0
6:53 pm 18:53 Sunny 88 31.1 67 19.4 50 50 ENE 5 7 29.72 1007 10 16.0934 0 0
7:53 pm 19:53 Sunny 79 26.1 67 19.4 67 67 E 7 11 29.73 1007 10 16.0934 0 0
8:53 pm 20:53 Clear 76 24.4 63 17.2 64 64 NE 8 13 29.74 1007 10 16.0934 0 0
9:53 pm 21:53 Mostly Clear 77 25 58 14.4 52 52 NE 12 19 29.76 1008 10 16.0934 0 0
10:53 pm 22:53 Mostly Clear 75 23.9 58 14.4 55 55 SSE 8 13 29.77 1008 10 16.0934 0 0.0254
11:53 pm 23:53 Clear 77 25 56 13.3 48 48 ENE 6 9 29.74 1007 10 16.0934 0 0

Powered by AerisWeather